Погода в Тырке

Погода в Тырке : погода сейчас, прогноз погоды и архив. Всё, что Вы хотите узнать о погоде в Тырке!

Хотите узнать прогноз погоды в Тырке? Тогда Вам сюда: Погода в Тырке

Поиск расширенной информации на нашем сайте:

Другие новости

Новости СМИ2

Главная страница сайта

Новости сайта

03.07.2017

Напоминаем, что на нашем специализированном сайте Метеоцентр.Азия вы можете получить высокодетализированные автоматические прогнозы погоды по пунктам России, СНГ и мира в авиационном формате (включающие направление и скорость ветра, видимость, явления погоды, количество и форму облачности, нижнюю и верхнюю границу облачности).


Погода в Тырке - сегодня

Время (UTC), дата Ветер
(°,м/с) 
Видим.   Явления Облачность Т
(°С)
Тd
(°С)
f(%) Тe
(°С)
Pmin
(гПа)
dP
(гПа)
Po
(мм)
O2
(г/м3)
Тmin Tmax R s Состояние
почвы
03 23.07.17 тихо ()   20000 м    3/3 600 м 
[Cu med, cong]
+16.1 +10.9 71 +20  1014.3  -0.5  705  266           
06 23.07.17 040 (СВ) 20000 м    4/4 600 м 
[Sc diur, vesp]
+20.6 +6.9 41 +21  1012.6  -0.5  705  263           
09 23.07.17 080 (В) 20000 м    4/4 600 м 
[Sc diur, vesp]
+22 +6 35 +22  1011.2  -1.2  704  261           
12 23.07.17 060 (СВ) 20000 м    1/0 средняя 
[Ac cast]
+20.5 +7.8 44 +21  1012  0.5  704  263    +22.2       
15 23.07.17 тихо ()   н/о    ясно 
+10.7 +7.4 80 +11  1015.6  0.2  705  272           
18 23.07.17 тихо ()   н/о  местами туман поземный  ясно 
+6.3 +5.9 97 +6  1017  -0.1  705  277           
21 23.07.17 100 (В) 10 км  туман на расстоянии  ясно 
+3.2 +2.4 94 +4  1017.3  -0.4  705  280           
00 24.07.17 100 (В) 20000 м  {туман}  1/0 верхняя 
[Ci fib]
+10.6 +7.5 81 +12  1015.3  0.2  705  272  +3         
03 24.07.17 080 (В) 20000 м    3/1 600 м верхняя 
[Cu hum|Ci fib]
+21.1 +8.6 45 +22  1010.8  -1.5  704  262           
06 24.07.17 090 (В) 20000 м    8/3 600 м средняя, верхняя 
[Cu med, cong|Ac trans|Ci fib]
+24.1 +7.1 34 +24  1008.1  -1.9  702  259           
09 24.07.17 тихо ()   20000 м    9/4 600 м кучево-дожд., средняя, верхняя 
[Cb cap|Ac trans|Ci fib]
+24.9 +8.1 34 +25  1006.2  -1.5  701  257           
12 24.07.17 130 (ЮВ) 20000 м    8/3 600 м кучево-дожд., средняя, верхняя 
[Cb cap|Ac trans|Ci fib]
+22.5 +10.1 45 +25  1006.8  701  259    +26       
15 24.07.17 тихо ()   н/о    3/0 верхняя 
[Ci fib]
+14.1 +9.4 73 +16  1009.5  0.5  701  267           
18 24.07.17 тихо ()   н/о    ясно 
+9.9 +7.8 87 +10  1011.2  0.4  702  271           
21 24.07.17 160 (Ю) 20000 м  туман на расстоянии  3/0 средняя, верхняя 
[Ac cast|Cc]
+5.2 +4.5 95 +6  1012.2  -0.3  701  277           
00 25.07.17 тихо ()   20000 м    4/1 600 м средняя, верхняя 
[Cu hum|Ac cast|Ci fib]
+11.9 +9.1 83 +13  1010.7  0.4  702  269  +4.2         
03 25.07.17 180 (Ю) 20000 м    6/3 600 м средняя 
[Cu med, cong|Ac trans]
+21 +8.5 45 +22  1007.9  -0.3  702  261           
06 25.07.17 170 (Ю) 20000 м    4/3 600 м кучево-дожд., средняя, верхняя 
[Cb cap|Ac und|Ci ing]
+24.3 +7.1 33 +24  1005.1  701  258           
09 25.07.17 250 (З) 20000 м    4/0 средняя, верхняя 
[Sc diur, vesp|Ac cuf|Ci sp]
+25.4 +6.7 30 +25  1004.3  -1.4  700  257           
12 25.07.17 270 (З) 20000 м    4/4 600 м 
[Sc diur, vesp]
+23.4 +6.5 34 +23  1004.8  700  259    +25.9       
15 25.07.17 тихо ()   н/о    1/1 600 м 
[Sc diur, vesp]
+12.7 +9.4 80 +14  1008.3  0.7  700  268           
18 25.07.17 090 (В) н/о    ясно 
+9.5 +8.1 91 +11  1009.6  0.4  701  271           
21 25.07.17 090 (В) 20000 м    1/1 600 м 
[Sc]
+6.7 +0.3 64 +8  1010.5  701  275           
00 26.07.17 090 (В) 20000 м    ясно 
+12.3 +9.1 81 +15  1009.5  0.6  701  269  +6         
03 26.07.17 090 (В) 20000 м    1/1 600 м 
[Cu med, cong]
+20.7 +13.2 62 +28  1006.3  -0.8  700  260           
Время (UTC), дата Ветер
(°,м/с) 
Видим.   Явления Облачность Т
(°С)
Тd
(°С)
f(%) Тe
(°С)
Pmin
(гПа)
dP
(гПа)
Po
(мм)
O2
(г/м3)
Тmin Tmax R s Состояние
почвы

Для получения пояснительной информации подведите курсор к названию столбца.

ПОГОДА в Тырке - архив

Всё, что Вы хотите узнать о погоде в Тырке - удобно и подробно!

Выберите нужную дату (начиная с 1 января 2015* года) и нажмите кнопку "Найти".
Будут отображены архивные сводки погоды по пункту Тырка, начиная с указанной даты.


Отображать данные в формате CSV (для использования в таблицах Excel)


Внимание! Наш архив погоды предназначен исключительно для личного некоммерческого использования в познавательных целях. Если Вам необходимы официальные справки о состоянии погоды (для производственных, юридических, коммерческих и т.п. целей), обращайтесь в органы Росгидромета.

*Примечание: данная дата относится к архиву по метеостанциям СССР (Россия, СНГ, Балтия).
Архив по метеостанциям Зарубежной Европы и Азии (кроме Китая) хранится 10 дней, по другим регионам земного шара (Китай, Африка, Америка, Австралия, Океания) - 1 день.

Тырка - район местоположения метеостанции


Название, широта, долгота, высота метеостанции:
Тырка 54.5°ш. 107.1°д. 650 м над ур. моря [Российская Федерация]

Дополнительная информация

В oтличие oт бoльшинства пoгoдных сайтoв мы публикуем пoдрoбную метеoинфoрмацию в детальнoм прoфессиoнальнoм фoрмате.

Характеристики температуры и влажнoсти вoздуха измеряются на высoте 2 м в тени вдали oт зданий и деревьев.
Скoрoсть ветра измеряется на высoте 10 м (на урoвне рoста челoвека скoрoсть ветра ниже в 1.5-2 раза). Если метеoстанция нахoдится в гoрoде или в лесу, тo скoрoсть ветра занижена на 2-4 м/с пo сравнению с oткрытым местoм. Скoрoсть ветра над акватoриями крупных рек и oзёр, а также на вершинах хoлмoв на 2-5 м/с выше, чем в oбычных услoвиях.
Атмoсфернoе давление в разных тoчках местнoсти мoжет значительнo oтличаться oт давления на метеoстанции, в зависимoсти oт услoвий рельефа (при пoдъёме на 10 м давление пoнижается примернo на 1 мм рт.ст.).